Location: ???????
(55.8500°N, 38.2000°E)
Time: 03:38:08
(UTC+00:00)

Daily predictions for brighter satellites

Satellite Brightness Start Highest point End
(mag) Time Altitude Azimuth Time Altitude Azimuth Time Altitude Azimuth
Genesis I 3.8 00:04:45 53° NNE 00:04:45 53° NNE 00:08:00 10° NE
Timation 1 Rocket 4.2 00:00:54 10° NW 00:06:55 77° WSW 00:12:55 10° SSE
Cosmos 2082 4.1 00:01:29 10° NW 00:05:52 45° WNW 00:05:52 45° WNW
AQUA 3.8 00:05:47 10° NNE 00:10:32 66° WNW 00:10:41 65° W
CZ-4C R/B 3.6 00:06:34 13° WNW 00:11:59 46° N 00:19:05 10° E
Cosmos 1821 Rocket 3.9 00:06:20 10° NNW 00:12:41 79° W 00:15:30 35° S
Cosmos 1470 Rocket 3.5 00:08:52 10° NNW 00:13:19 89° ENE 00:13:45 73° SSE
Cosmos 1777 Rocket 3.9 00:08:25 10° NNW 00:13:29 61° WSW 00:13:29 61° WSW
Cosmos 2369 Rocket 4.1 00:10:56 15° WNW 00:13:58 22° NNW 00:18:19 10° NNE
NOSS 2-1 (C) 3.9 00:15:18 44° NNW 00:15:18 44° NNW 00:19:14 10° NE
Cosmos 1992 Rocket 3.9 00:14:43 60° WSW 00:15:25 68° WNW 00:20:40 10° NNE
CZ-4B R/B 3.4 00:12:34 10° NNE 00:17:40 86° WNW 00:18:48 56° SSW
NOSS 2-2 (C) 4.5 00:18:35 50° WSW 00:18:53 50° SW 00:25:51 10° SSE
NOSS 2-1 (D) 4.0 00:20:12 42° NNW 00:20:18 42° NNW 00:24:18 10° NE
Cosmos 1697 Rocket 2.9 00:19:51 40° S 00:21:45 64° ESE 00:27:19 10° NE
Cosmos 972 Rocket 4.2 00:21:57 38° SSE 00:23:37 59° ESE 00:28:31 10° NNE
Meteor 1-28 Rocket 4.3 00:25:29 33° NW 00:25:29 33° NW 00:27:46 10° NNW
Cosmos 1934 Rocket 3.9 00:18:07 10° N 00:24:13 82° ENE 00:30:18 10° SSE
ERS-2 4.3 00:22:42 10° ESE 00:25:50 27° ENE 00:29:00 10° N
SL-24 R/B 4.4 00:24:10 32° SSE 00:26:29 84° WSW 00:32:09 10° NNW
Cosmos 1980 Rocket 3.1 00:23:49 23° S 00:26:53 43° ESE 00:32:12 10° NE
Cosmos 2263 Rocket 2.2 00:22:48 10° NW 00:28:29 83° NE 00:34:11 10° SE
Meteor 1-25 Rocket 4.3 00:24:53 10° NNW 00:30:38 60° W 00:32:39 39° SSW
Meteor 1-26 Rocket 4.4 00:29:01 27° S 00:31:57 68° E 00:37:21 10° NNE
Cosmos 220 Rocket 3.9 00:31:47 62° W 00:32:04 64° WNW 00:36:21 10° NNE
ATLAS CENTAUR R/B 3.8 00:16:31 10° W 00:32:31 82° N 00:38:08 10° E
Cosmos 1844 Rocket 4.3 00:28:57 10° NNW 00:34:07 36° NE 00:39:19 10° ESE
Cosmos 405 4.0 00:37:32 35° NW 00:37:32 35° NW 00:40:06 10° N
Cosmos 1515 Rocket 3.8 00:35:46 33° S 00:37:39 68° E 00:42:06 10° NNE
Cosmos 1933 3.3 00:37:52 64° WSW 00:38:08 67° WNW 00:42:13 10° N
Cosmos 1356 3.3 00:35:06 10° NNW 00:38:28 84° N 00:38:28 84° N
Cosmos 1602 3.8 00:38:13 10° NNW 00:41:40 57° WNW 00:41:40 57° WNW
ADEOS II 2.1 00:37:34 10° NNE 00:42:46 62° WNW 00:44:28 41° SW
SL-16 R/B 4.4 00:38:58 10° SSE 00:43:05 21° ESE 00:47:13 10° NE
Cosmos 1633 Rocket 4.2 00:40:13 10° NNW 00:42:58 27° WNW 00:42:58 27° WNW
Cosmos 1937 Rocket 4.3 00:39:21 10° NNW 00:44:25 51° NE 00:49:26 10° SE
Nadezhda 3 Rocket 3.9 00:42:12 31° SSW 00:45:20 76° WNW 00:51:32 10° N
Cosmos 2227 4.1 00:40:42 10° NW 00:46:23 76° WSW 00:52:01 10° SSE
Cosmos 1328 Rocket 3.5 00:46:57 48° SW 00:48:00 66° WNW 00:52:28 10° N
ARIANE 5 R/B 2.5 00:43:08 10° NNE 00:48:18 86° ESE 00:51:03 28° SSW
Cosmos 1500 3.3 00:46:03 10° N 00:49:56 74° ENE 00:53:46 10° SSE
Cosmos 1151 Rocket 3.1 00:49:41 48° WSW 00:50:30 58° WNW 00:54:49 10° N
Cosmos 1933 Rocket 3.5 00:46:11 10° NNW 00:50:30 60° W 00:51:47 41° SSW
Cosmos 1605 Rocket 4.1 00:44:17 10° N 00:50:44 84° E 00:57:09 10° SSE
Cosmos 1535 Rocket 4.5 00:45:43 10° NNW 00:52:06 73° W 00:58:27 10° S
USA 305 3.7 00:51:12 34° S 00:52:06 39° SSE 00:56:04 10° E
IDEFIX/ARIANE 42P 2.7 00:46:57 10° NNE 00:52:16 76° ESE 00:56:03 19° S
Cosmos 1656 3.9 00:51:02 36° WSW 00:53:04 57° NW 00:58:34 10° NNE
IRS-1D 3.9 00:47:55 10° N 00:53:05 50° WNW 00:54:55 35° WSW
Meteor 1-14 Rocket 4.1 00:48:55 10° NNW 00:54:31 65° W 01:00:00 10° S
Cosmos 1812 4.2 00:51:19 10° SSE 00:54:51 36° E 00:58:26 10° NNE
Cosmos 1666 3.9 00:51:48 10° N 00:55:30 43° ENE 00:59:09 10° SE
USA 306 3.7 00:55:13 34° S 00:56:17 40° SSE 01:00:17 10° E
ASTEX 1 3.3 00:53:27 10° N 00:58:28 81° W 01:01:52 21° SSW
CZ-2C R/B 4.0 00:54:14 10° NNE 00:58:56 35° E 01:03:40 10° SSE
PKM 4.2 00:57:45 34° W 00:59:18 53° SSW 01:02:40 10° SE
Meteor 1-5 Rocket 4.1 00:54:43 10° NNW 01:00:04 87° ENE 01:05:27 10° SSE
NOSS 3-4 (A) 3.8 00:53:49 10° NW 01:00:33 85° NE 01:08:06 10° SE
NOSS 3-4 (C) 3.8 00:53:55 10° NW 01:00:39 85° NE 01:08:11 10° SE
CZ-4C R/B 2.9 00:58:58 13° SSE 01:02:05 84° WSW 01:05:40 10° NNW
CBERS-1 4.5 00:57:30 10° N 01:02:21 44° WNW 01:04:09 32° WSW
Cosmos 2228 Rocket 3.3 01:02:04 15° S 01:05:43 68° E 01:10:08 10° NNE
IRS-1C 4.2 01:03:24 10° NNE 01:08:40 59° WNW 01:11:32 27° SW
USA 267 3.5 01:02:20 10° ENE 01:08:49 61° SSE 01:13:06 23° SW
CZ-2D R/B 3.4 01:04:58 10° NNE 01:09:11 81° WNW 01:11:39 25° SSW
Cosmos 1869 Rocket 3.4 01:05:32 10° NNW 01:09:56 85° WSW 01:14:16 10° S
SL-16 R/B 4.3 01:15:09 12° WNW 01:15:09 12° WNW 01:16:42 10° WNW
CZ-2D R/B 3.6 01:12:54 10° N 01:16:54 22° NW 01:18:49 18° W
Cosmos 1238 Rocket 4.2 01:11:21 10° NNW 01:17:47 53° W 01:23:48 10° SSW
SJ 16-02 1.4 01:16:18 10° NW 01:20:34 50° WSW 01:24:50 10° S
CZ-2C R/B 2.7 01:18:04 10° NNE 01:21:51 88° E 01:24:49 16° SSW
PAYLOAD A 4.5 01:18:04 10° NNE 01:22:44 55° E 01:27:20 10° S
PSLV R/B 4.3 01:19:25 10° NNE 01:23:32 50° E 01:27:37 10° S
USA 307 3.4 01:21:47 27° SW 01:23:48 50° SSE 01:27:55 10° E
Resurs 1-4 Rocket 3.7 01:20:12 10° N 01:23:54 20° NW 01:25:56 16° WNW
Cosmos 44 3.5 01:21:10 20° SSW 01:24:11 60° SE 01:28:53 10° NE
Cosmos 2278 3.7 01:20:29 20° SW 01:24:30 84° NW 01:30:16 10° NE
ATLAS 2AS CENTAUR R/B 2.9 01:16:49 10° NW 01:24:35 89° SW 01:31:43 10° SE
Cosmos 1782 3.1 01:23:31 28° SW 01:25:16 47° WNW 01:29:12 10° N
Cosmos 990 Rocket 3.9 01:20:33 10° NNW 01:25:42 65° WSW 01:30:51 10° SSE
USA 308 3.3 01:24:51 26° SW 01:26:58 51° SSE 01:31:07 10° E
Cosmos 2100 Rocket 4.4 01:20:38 10° N 01:27:02 70° ENE 01:33:23 10° SSE
Cosmos 1943 Rocket 4.5 01:24:13 10° NW 01:27:51 17° N 01:31:27 10° NE
Meteor 1-4 Rocket 3.2 01:26:05 10° S 01:29:29 54° E 01:32:57 10° NNE
Cosmos 389 Rocket 2.7 01:28:34 28° SW 01:30:06 50° WNW 01:33:37 10° N
Cosmos 1606 4.5 01:29:56 16° WNW 01:30:13 17° WNW 01:32:43 10° NNW
Cosmos 1727 Rocket 4.3 01:25:40 10° S 01:31:58 71° E 01:38:17 10° NNE
Lacrosse 5 1.9 01:29:27 23° WSW 01:32:40 74° SSE 01:37:44 10° ENE
USA 276 3.3 01:32:02 25° SSW 01:32:52 29° S 01:35:43 10° ESE
Cosmos 2369 3.9 01:29:32 21° WSW 01:33:18 59° NW 01:39:00 10° NNE
Cosmos 1743 4.5 01:30:07 10° N 01:33:41 35° ENE 01:37:12 10° SE
H-2A R/B 2.3 01:29:47 10° S 01:34:02 48° W 01:38:25 10° NNW
ATLAS 5 CENTAUR R/B 2.9 01:30:41 16° WNW 01:34:03 38° N 01:39:02 10° ENE
Meteor 1-11 Rocket 3.7 01:31:37 10° NNW 01:37:28 76° W 01:43:09 10° S
ADEOS Rocket 3.0 01:31:30 10° SSE 01:38:10 83° WSW 01:44:11 10° NNW
Cosmos 1339 Rocket 4.5 01:32:07 10° SSW 01:38:23 73° WNW 01:44:36 10° N
ERBS 4.2 01:38:07 11° SSW 01:40:36 24° SE 01:43:23 10° E
ALOS 4.0 01:38:54 10° NNE 01:43:12 35° E 01:47:28 10° SSE
Cosmos 1459 Rocket 4.1 01:37:08 10° N 01:43:17 80° ENE 01:49:21 10° SSE
Cosmos 972 4.4 01:41:42 15° SW 01:45:51 63° WNW 01:50:44 10° NNE
Landsat 5 4.1 01:43:05 10° SSW 01:47:18 37° W 01:51:28 10° NNW
USA 234 4.0 01:42:15 10° S 01:47:46 29° SW 01:53:18 10° WNW
MSX 3.9 01:42:33 10° NNE 01:48:18 65° WNW 01:54:00 10° SSW
Spot 4 Rocket 4.3 01:43:35 10° N 01:48:33 50° WNW 01:53:11 12° SW
CZ-4B R/B 1.2 01:49:25 10° SSE 01:52:36 77° WSW 01:55:55 10° NNW
Meteor 1-27 Rocket 4.1 01:49:18 10° S 01:55:12 74° E 02:01:06 10° NNE
Cosmos 1484 Rocket 4.1 01:55:19 10° NNE 01:59:09 44° E 02:03:00 10° S
ERS-2 2.6 01:55:52 10° S 01:59:18 37° W 02:02:46 10° NNW
Cosmos 2298 Rocket 4.4 01:54:22 10° NNW 01:59:43 69° ENE 02:05:00 10° SE
Cosmos 2369 Rocket 4.4 01:56:19 10° NW 02:00:09 18° N 02:03:59 10° NE
COSMO-SKYMED 1 3.4 01:56:02 10° SE 02:00:16 56° ENE 02:04:33 10° N
Cosmos 1898 Rocket 3.9 01:55:25 10° NW 02:00:18 41° WSW 02:05:13 10° S
Cosmos 2360 Rocket 3.9 01:55:51 10° S 02:00:53 34° ESE 02:05:57 10° NE
CZ-4C R/B 3.1 01:54:46 10° NW 02:01:26 74° NNE 02:09:23 10° ESE
Cosmos 1536 2.9 02:00:26 10° NNW 02:04:26 55° W 02:08:25 10° S
Cosmos 1697 Rocket 3.4 02:01:35 13° WSW 02:06:05 38° NW 02:11:20 10° NNE
Cosmos 1689 Rocket 2.4 02:04:46 10° SSE 02:07:44 69° ENE 02:10:43 10° N
Cosmos 372 Rocket 3.9 02:03:25 10° NNW 02:08:37 80° WSW 02:13:45 10° SSE
Meteor 1-31 Rocket 3.9 02:06:56 10° NNE 02:10:39 46° E 02:14:21 10° S
Cosmos 1980 Rocket 2.5 02:05:36 11° WSW 02:10:52 51° NW 02:16:24 10° NNE
deb Chang Zheng 4 3.9 02:06:53 10° NNE 02:11:13 68° ESE 02:15:28 10° S
Cosmos 2263 Rocket 3.2 02:07:25 10° NW 02:11:51 24° WSW 02:16:17 10° SSW
Cosmos 2278 Rocket 3.6 02:06:47 10° NNW 02:12:07 40° NE 02:17:26 10° ESE
Cosmos 1844 3.7 02:08:16 10° NW 02:13:54 85° WSW 02:19:27 10° SSE
Cosmos 1908 Rocket 4.2 02:09:33 10° N 02:14:00 63° ENE 02:18:27 10° SSE
Cosmos 2173 Rocket 4.0 02:09:36 10° NNW 02:15:51 66° W 02:22:09 10° S
USA 32 4.3 02:12:15 10° NNW 02:17:17 46° W 02:22:16 10° SSW
Cosmos 2322 Rocket 2.6 02:11:45 10° SSW 02:17:23 69° ESE 02:23:05 10° NE
Cosmos 1844 Rocket 2.7 02:12:51 10° NW 02:18:29 71° WSW 02:24:06 10° SSE
PSLV R/B 4.0 02:15:01 10° SSE 02:19:05 84° ENE 02:23:13 10° NNW
Cosmos 1437 Rocket 4.2 02:16:44 10° SSE 02:20:19 41° E 02:23:59 10° NNE
Cosmos 1544 3.4 02:16:52 10° N 02:20:29 71° ENE 02:24:03 10° SSE
Cosmos 921 Rocket 3.4 02:16:29 10° SW 02:20:31 44° WNW 02:24:34 10° NNE
COSMOS 2455 3.7 02:14:51 10° NW 02:20:48 53° NE 02:26:42 10° ESE
ADEOS II 3.8 02:18:22 10° N 02:21:34 17° NW 02:24:45 10° W
RESURS DK-1 4.2 02:19:44 10° NNW 02:23:32 32° NE 02:27:18 10° ESE
Cosmos 1937 Rocket 4.1 02:21:36 10° NW 02:26:14 34° WSW 02:30:50 10° SSW
SL-16 R/B 2.3 02:20:47 10° SSW 02:26:29 88° ESE 02:32:13 10° NE
ARIANE 5 R/B 3.8 02:22:56 10° N 02:26:52 23° NW 02:30:44 10° WSW
ADEOS 3.6 02:22:02 10° NNE 02:27:18 90° E 02:32:33 10° SSW
Cosmos 1707 Rocket 3.7 02:24:45 10° SSW 02:29:00 53° WNW 02:33:18 10° N
Cosmos 2150 Rocket 4.1 02:23:34 10° NNW 02:29:05 84° WSW 02:34:31 10° SSE
CZ-3B R/B 3.4 02:25:31 10° W 02:29:24 85° S 02:46:00 10° E
Cosmos 1812 3.7 02:27:22 10° SW 02:30:43 28° WNW 02:34:08 10° N
Cosmos 1666 3.9 02:27:48 10° NW 02:30:51 23° W 02:33:53 10° SW
IDEFIX/ARIANE 42P 3.7 02:27:08 10° N 02:31:25 26° NW 02:35:43 10° WSW
USA 305 3.1 02:27:35 10° WSW 02:31:50 68° S 02:36:04 10° E
Cosmos 1125 Rocket 3.8 02:27:39 10° NNW 02:33:00 78° ENE 02:38:16 10° SSE
Cosmos 2061 Rocket 4.1 02:28:16 10° NNW 02:34:41 70° W 02:41:05 10° S
USA 306 3.1 02:31:46 10° WSW 02:36:01 69° S 02:40:15 10° E
